Hourly Data Report for February 16, 2004

TORONTO CITY
ONTARIO

43°40'00.000" N
79°24'00.000" W
112.50 m
6158355
71508
XTO

Download Data

Hourly Data (February 2004)
Hourly Data Report for February 16, 2004
TIME
LST
Temp Definition
°C
Dew Point Definition
°C
Rel Hum Definition
%
Precip. Amount Definition
mm

Wind Dir Definition
10's deg

Wind Spd Definition
km/h
Visibility Definition
km
Stn Press Definition
kPa
Hmdx Definition


Wind Chill Definition


Weather Definition


00:00 -12.0 -20.3 50   LegendMM LegendMM LegendMM 101.87     LegendNANA
01:00
02:00 -11.7 -17.8 61   LegendMM LegendMM LegendMM 101.88     LegendNANA
03:00 -11.0 -16.7 63   LegendMM LegendMM LegendMM 101.91     LegendNANA
04:00 -10.5 -15.8 65   LegendMM LegendMM LegendMM 101.91     LegendNANA
05:00 -10.3 -15.3 67   LegendMM LegendMM LegendMM 101.94     LegendNANA
06:00 -10.1 -15.0 67   LegendMM LegendMM LegendMM 101.97     LegendNANA
07:00 -9.7 -14.6 67   LegendMM LegendMM LegendMM 102.04     LegendNANA
08:00 -9.2 -13.8 69   LegendMM LegendMM LegendMM 102.11     LegendNANA
09:00 -8.6 -13.2 69   LegendMM LegendMM LegendMM 102.24     LegendNANA
10:00 -7.1 -12.5 65   LegendMM LegendMM LegendMM 102.26     LegendNANA
11:00 -6.3 -13.3 58   LegendMM LegendMM LegendMM 102.28     LegendNANA
12:00 -5.8 -12.6 59   LegendMM LegendMM LegendMM 102.33     LegendNANA
13:00 -6.1 -12.6 60   LegendMM LegendMM LegendMM 102.29     LegendNANA
14:00 -5.7 -12.8 57   LegendMM LegendMM LegendMM 102.22     LegendNANA
15:00 -5.4 -13.1 55   LegendMM LegendMM LegendMM 102.19     LegendNANA
16:00 -5.2 -13.6 52   LegendMM LegendMM LegendMM 102.19     LegendNANA
17:00 -5.2 -11.8 60   LegendMM LegendMM LegendMM 102.19     LegendNANA
18:00 -5.7 -11.6 63   LegendMM LegendMM LegendMM 102.20     LegendNANA
19:00 -5.8 -11.6 64   LegendMM LegendMM LegendMM 102.25     LegendNANA
20:00 -5.8 -11.7 63   LegendMM LegendMM LegendMM 102.23     LegendNANA
21:00 -6.0 -12.2 61   LegendMM LegendMM LegendMM 102.19     LegendNANA
22:00 -5.7 -11.0 66   LegendMM LegendMM LegendMM 102.16     LegendNANA
23:00 -5.4 -10.2 69   LegendMM LegendMM LegendMM 102.10     LegendNANA

Notes on Data Quality.

Legend

  • E = Estimated
  • M = Missing
  • NA = Not Available*
  • [empty] = Indicates an unobserved value
Date modified: